Simultaneous Nadir Overpasses (SNOs) Predictions

Prediction of SNOs between NOAA-19 and TERRA Satellite Orbit:

Table of predicted SNOs for the next 14.0 days since TLE Epoch: 7/25/2020
Index Date (NOAA-19) Time (NOAA-19) Lat,Lon (NOAA-19) SZA (NOAA-19 ) Date (TERRA) Time (TERRA) Lat,Lon (TERRA) SZA (TERRA ) Distance(km) Time Diff (sec)
1 07/25/2020 10:29:09 79.62, 51.40 61.29 07/25/2020 10:30:21 79.61, 51.53 61.32 2.80 72
2 07/25/2020 11:20:13 -79.59,-141.13 118.71 07/25/2020 11:19:49 -79.57,-141.10 118.73 2.51 24
3 07/27/2020 16:53:25 79.59, -44.34 61.81 07/27/2020 16:53:32 79.60, -44.34 61.81 0.54 7
4 07/29/2020 22:26:46 -79.61, 52.27 117.66 07/29/2020 22:27:16 -79.62, 52.39 117.63 2.90 30
5 07/29/2020 23:17:41 79.57,-140.09 62.35 07/29/2020 23:16:43 79.58,-140.24 62.33 3.26 58
6 08/01/2020 03:59:59 79.62, 148.91 62.90 08/01/2020 04:01:00 79.60, 148.82 62.90 2.80 61
7 08/01/2020 04:51:02 -79.59, -43.58 117.09 08/01/2020 04:50:27 -79.61, -43.51 117.09 2.03 35
8 08/03/2020 10:24:15 79.60, 53.15 63.50 08/03/2020 10:24:10 79.62, 53.16 63.52 2.27 5
9 08/05/2020 15:57:35 -79.62, 149.70 115.89 08/05/2020 15:57:55 -79.60, 149.61 115.91 2.52 20
10 08/05/2020 16:48:32 79.61, -42.91 64.12 08/05/2020 16:47:21 79.60, -42.79 64.10 2.49 71
11 08/07/2020 21:30:49 79.63,-113.64 64.75 08/07/2020 21:31:37 79.65,-113.52 64.79 2.83 48
